Find Starlink 31826

NORAD ID: 59768 Int'l Des: 2024-091 Owner: SPXS Country: US Constellation: starlink operational
LEOCIRCULAR

当前视图

正在加载3D地球...

About Starlink 31826

Starlink 31826 (NORAD 59768) is a starlink constellation satellite (v2 mini) launched May 14, 2024 by SPXS of US. It operates in LEO, CIRCULAR orbit with a mass of 730.00 kg.

关于 Starlink 31826

正在加载描述...

即将过境

Passes for default location (London). Set your location on the main map for personalized predictions.

高度历史

Loading altitude history...

两行轨道根数

1 59768U 24091R 26195.58335648 .00063871 00000-0 10476-2 0 9991
2 59768 53.1493 149.2177 0006288 32.4326 124.5538 15.51851669 5917
Epoch: Jul 14, 2026 • Age: 9 hours

当前状态

高度 407.9 km
远地点 / 近地点 N/A
速度 7.67 km/s
星下点 3.84°N, 121.77°W
发射日期 May 14, 2024
运行时间 2.1 years
类型 internet

技术详情

分类 Payload
质量 730.00 kg
干质量 700.00 kg
总质量 730.00 kg
长度 0.30 m
直径 4.10 m
跨度 29.00 m
形状 Box + pan
制造商 SPXS
平台类型 Starlink V2M
阶段状态 In Orbit
所有者/国家 SPXS/US

Most Searched